Temp
8 8 8 8 9 9 10 10 10 12 13 17 18 18 17 16 16 16 15 16 16 14
8 8 7 7 7 7 7 7 7 8 10 10 11 11 12 13 13 13 13 14 13 13
8 7 6 6 5 5 6 6 6 6 6 8 8 8 9 8 9 9 9 9 9 8
7 6 5 4 3 3 3 5 4 4 5 5 6 6 6 7 7 7 7 8 9 9
5 4 4 3 2 2 3 2 2 2 2 2 4 4 4 4 4 4 4 5 5 6
3 3 2 2 1 0 -0 0 3 2 1 0 1 2 3 3 3 3 3 2 2 2
3 2 1 0 -0 -1 -0 -0 -1 -1 0 -0 0 1 1 1 2 2 2 2 1 1
1 1 -0 -1 -2 -2 -3 -3 -3 -1 -1 -1 -1 -1 -0 -0 0 1 1 1 0 -0
-0 -1 -1 -2 -2 -3 -4 -4 -4 -4 -3 -3 -3 -2 -1 -1 -1 -1 -1 -1 -0 -1
-1 -1 -2 -2 -3 -3 -3 -4 -5 -5 -5 -4 -4 -3 -2 -1 -1 -1 -0 -1 -1 -1
-1 -2 -2 -3 -3 -4 -4 -4 -4 -5 -5 -5 -5 -2 -1 -0 1 1 1 -1 -2 -3
-2 -3 -3 -3 -4 -4 -4 -4 -4 -4 -4 -5 -6 -5 -4 -3 -2 -0 -0 -2 -3 -5
-3 -3 -3 -3 -3 -2 -2 -2 -2 -4 -4 -5 -5 -5 -5 -5 -5 -4 -2 -3 -3 -5
-4 -3 -3 -2 -2 -2 -2 -2 -2 -3 -4 -5 -6 -7 -6 -6 -6 -6 -4 -5 -5 -5
Height
730 722 715 709 700 692 690 686 679 672 668 663 663 666 669 671 675 678 681 684 687 694
733 726 719 711 703 700 694 695 685 683 676 673 666 669 668 665 668 668 671 675 683 689
735 731 725 716 710 700 691 696 698 694 686 676 664 664 672 671 680 675 674 677 681 686
738 733 731 724 718 711 704 695 701 699 698 688 693 678 682 680 680 686 682 680 688 692
740 736 735 731 725 720 714 712 709 710 709 708 701 706 700 685 692 697 694 696 697 701
744 741 739 737 732 729 724 721 716 722 713 721 721 710 708 709 709 714 713 706 711 717
750 748 745 743 739 735 732 730 730 727 724 728 720 716 722 723 719 718 720 721 725 730
756 753 751 747 748 743 739 740 739 734 730 729 729 735 735 732 729 725 729 733 737 735
762 759 758 755 755 751 748 747 745 744 737 741 744 743 739 737 737 737 741 742 746 745
770 767 766 762 765 759 758 757 754 756 748 747 750 749 748 748 746 746 747 749 752 753
778 776 774 772 771 769 767 764 763 764 757 754 758 756 754 754 754 752 752 753 758 761
785 783 783 781 780 776 777 775 771 772 768 766 767 766 763 760 757 757 755 757 761 759
791 790 789 788 786 784 784 780 780 780 776 776 775 773 770 767 765 762 761 764 763 761
798 798 797 795 793 791 789 788 787 786 786 782 782 778 776 772 771 769 768 766 765 764
Wind_Speed
24 21 22 25 26 24 23 26 27 19 11 21 33 36 32 30 30 24 22 18 18 20
25 22 19 20 24 26 31 34 35 27 22 25 14 10 14 27 29 30 25 23 21 17
21 20 21 22 24 22 30 35 35 36 37 26 30 27 22 26 17 17 22 23 27 25
17 19 21 23 24 27 31 31 34 32 35 40 34 33 28 32 34 26 23 27 30 30
17 18 20 22 25 29 32 34 36 35 38 36 34 30 32 43 39 30 31 31 33 29
18 20 21 23 26 29 31 32 34 36 41 36 30 37 35 34 35 31 33 35 33 30
19 20 22 22 26 29 33 34 35 36 37 36 40 39 32 31 30 30 28 31 31 27
21 22 24 28 27 32 35 34 34 34 36 38 38 33 31 29 30 29 27 25 22 26
18 22 24 27 25 28 32 34 35 35 37 36 34 31 31 29 28 28 24 23 16 21
20 23 24 26 25 29 28 31 33 30 34 35 32 29 26 23 21 21 20 22 21 19
21 24 25 27 27 28 28 28 28 28 32 35 34 30 25 22 19 20 21 20 18 16
24 25 25 25 24 24 20 22 26 25 27 30 33 33 30 26 25 23 23 19 22 26
23 25 23 21 18 19 20 22 20 20 29 29 29 32 32 29 26 25 21 19 21 25
24 22 20 18 18 18 19 18 22 24 25 27 30 30 30 30 27 26 20 20 22 24
Wind_Direction
360 6 12 12 14 21 12 7 9 358 335 229 222 224 223 211 191 173 158 135 140 122
4 11 18 29 37 26 34 22 22 25 34 23 56 62 140 155 154 151 138 131 128 125
10 13 16 30 38 41 56 41 34 33 32 54 44 57 73 48 40 96 108 107 108 97
18 25 25 35 36 40 49 65 50 37 37 42 39 57 60 75 60 62 58 76 79 82
36 40 36 38 47 53 57 57 58 50 51 38 49 53 43 56 61 34 49 48 57 61
47 54 48 43 50 49 52 56 63 55 52 42 35 41 52 60 55 52 48 49 48 46
52 57 59 58 57 60 62 61 60 60 63 51 49 49 41 47 58 57 54 53 56 52
61 62 63 63 56 61 63 61 60 64 60 54 49 46 49 49 47 50 49 48 59 59
60 70 69 66 59 61 60 59 59 55 59 52 42 43 46 45 48 50 48 46 49 45
61 65 62 64 58 58 58 56 53 49 54 52 45 42 46 44 48 53 56 52 34 33
56 59 61 60 57 57 55 54 52 46 47 48 36 42 49 37 44 53 57 53 46 39
62 60 59 58 56 56 53 59 57 48 50 48 41 36 39 32 29 34 43 46 41 29
60 58 54 51 47 53 52 55 55 54 52 45 38 34 32 32 27 19 27 23 16 14
62 58 56 53 49 49 51 54 55 48 43 39 32 27 27 26 24 12 16 15 9 4